KBOIKLLJ

Guest
Details From KBOI - Boise Air Terminal (Gowen Field)
To KLLJ - CHALLIS
Flight Number -
Tags generated
Created
Modified
Stats Distance 104 nm / 193 km
Max Altitude 8,000 ft / 2,438 m
Waypoints 3
Social Downloads 2
Likes 0
Share

Download

Looking for another format? Having issues loading an existing format? Contact us
Advertisement - Login to hide

Notes

Basic altitude profile: - Ascent Rate: 1800ft/min - Ascent Speed: 250kts - Cruise Altitude: 13000ft - Cruise Speed: 325kts - Descent Rate: 1800ft/min - Descent Speed: 180kts Options: - Use NATs: yes - Use PACOTS: yes - Use low airways: yes - Use high airways: yes

Route

KBOI PLUTO KLLJ

ID Type Via Altitude (ft/m) Position (lat/lon) Dist (leg/tot) Name
O KBOI APT - 0 / 0 43.55624 / -116.21495 - / 0 nm Boise Air Terminal (Gowen Field)
PLUTO FIX - 8,000 / 2,438 43.81092 / -115.83319 22 / 22 nm
O KLLJ APT - 0 / 0 44.52292 / -114.21750 81 / 104 nm CHALLIS

Altitude Profile

Advertisement - Login to hide

KBOI

Details ICAO KBOI (BOI)
Name Boise Air Terminal Gowen Fld
Region United States
Timezone America/Boise (UTC-6.0)
Stats Elevation 2,872 ft / 875 m (AMSL)
Location 43.564400° -116.223000°
Runways 2
Magnetic Variation 12.941° E

METAR

KBOI 021153Z 14003KT 10SM CLR 21/18 A3017 RMK AO2 SLP190 70006 T02060178 10228 20206 53007

Decode

TAF

KBOI 021131Z 0212/0312 14006KT P6SM BKN120 FM021700 31010KT P6SM FEW200 FM030300 VRB05KT P6SM FEW200

Decode

Departure Runways

ID Width Length Bearing (true/mag) Surface Threshold Overrun Markings Lighting
10L 150 ft / 46 m 9,982 ft / 3,043 m 115.22° / 102.28° ASPHALT 0 ft / 0 m 197 ft / 60 m APP EDGE THRESHOLD REIL-OMNI
10R 150 ft / 46 m 9,746 ft / 2,971 m 115.20° / 102.26° ASPHALT 0 ft / 0 m 200 ft / 61 m PREC-APP CENTERLINE EDGE THRESHOLD ALSF-II TDZ
28L 150 ft / 46 m 9,746 ft / 2,971 m 295.23° / 282.29° ASPHALT 0 ft / 0 m 200 ft / 61 m PREC-APP CENTERLINE EDGE THRESHOLD MALSR TDZ
28R 150 ft / 46 m 9,982 ft / 3,043 m 295.24° / 282.30° ASPHALT 0 ft / 0 m 200 ft / 61 m PREC-APP EDGE THRESHOLD

KLLJ

Details ICAO KLLJ
Name CHALLIS
Region United States
Timezone America/Boise (UTC-6.0)
Stats Elevation 5,072 ft / 1,546 m (AMSL)
Location 44.522900° -114.217000°
Runways 1
Magnetic Variation 12.471° E

METAR

KLLJ 021155Z AUTO 00000KT 10SM OVC026 17/16 A3032 RMK AO2 SLP205 70036 T01720156 10172 20161 53005 $

Decode

TAF

Not found

Destination Runways

ID Width Length Bearing (true/mag) Surface Threshold Overrun Markings Lighting
16 60 ft / 18 m 4,564 ft / 1,391 m 181.82° / 169.35° ASPHALT 0 ft / 0 m 0 ft / 0 m APP EDGE THRESHOLD
34 60 ft / 18 m 4,564 ft / 1,391 m 1.82° / 349.35° ASPHALT 0 ft / 0 m 0 ft / 0 m APP EDGE THRESHOLD

Popular Alternatives